SWEDISP ESMT-ESMT

Flight info

Callsign SWEDISP
Flight time 0h 6m
Altitude 2500
Route DCT STAY01/0040 MF STAY01/0040 DCT
Aircraft SB39/M-SBDE2E3FGHIJ3J4J5P2RWXYZ/S

Departure

Time 2026-04-18 12:44
Airport Halmstad Airport (ESMT)

Arrival

Time 2026-04-18 12:50
Airport Halmstad Airport (ESMT)
Time Latitude Longitude Altitude Speed Heading
2026-04-18 12:23 56.68649 12.82647 71 ft 0 kts 259°
2026-04-18 12:24 56.68645 12.82624 71 ft 4 kts 251°
2026-04-18 12:24 56.68642 12.82609 71 ft 0 kts 251°
2026-04-18 12:25 56.68635 12.82578 69 ft 3 kts 225°
2026-04-18 12:25 56.68547 12.82608 69 ft 16 kts 163°
2026-04-18 12:25 56.68495 12.82636 67 ft 3 kts 163°
2026-04-18 12:25 56.68482 12.82644 71 ft 1 kts 163°
2026-04-18 12:26 56.68440 12.82666 71 ft 8 kts 165°
2026-04-18 12:26 56.68370 12.82664 69 ft 12 kts 194°
2026-04-18 12:26 56.68291 12.82593 69 ft 14 kts 218°
2026-04-18 12:26 56.68226 12.82462 71 ft 14 kts 231°
2026-04-18 12:27 56.68165 12.82318 71 ft 16 kts 232°
2026-04-18 12:27 56.68126 12.82175 71 ft 14 kts 285°
2026-04-18 12:27 56.68154 12.82009 67 ft 0 kts 285°
2026-04-18 12:42 56.68169 12.81908 67 ft 16 kts 287°
2026-04-18 12:42 56.68296 12.81863 71 ft 27 kts
2026-04-18 12:42 56.68473 12.81898 73 ft 24 kts
2026-04-18 12:42 56.68682 12.81939 72 ft 45 kts
2026-04-18 12:43 56.68984 12.81996 69 ft 42 kts
2026-04-18 12:43 56.69256 12.82053 70 ft 37 kts
2026-04-18 12:43 56.69444 12.82115 73 ft 5 kts 313°
2026-04-18 12:43 56.69422 12.82087 66 ft 12 kts 187°
2026-04-18 12:44 56.68622 12.81748 326 ft 225 kts 221°
2026-04-18 12:44 56.67330 12.79371 927 ft 307 kts 133°
2026-04-18 12:44 56.68139 12.81733 567 ft 307 kts
2026-04-18 12:44 56.70237 12.82117 738 ft 310 kts 322°
2026-04-18 12:45 56.71482 12.80730 1961 ft 250 kts 50°
2026-04-18 12:45 56.70054 12.82220 122 ft 458 kts 186°
2026-04-18 12:45 56.67026 12.81611 5342 ft 122 kts
2026-04-18 12:45 56.69591 12.82218 7329 ft 252 kts
2026-04-18 12:46 56.69453 12.82082 158 ft 292 kts 185°
2026-04-18 12:46 56.67894 12.81584 321 ft 198 kts 235°
2026-04-18 12:46 56.68067 12.79498 777 ft 352 kts 286°
2026-04-18 12:46 56.69777 12.76788 596 ft 369 kts 59°
2026-04-18 12:47 56.69150 12.80602 315 ft 364 kts 118°
2026-04-18 12:47 56.69112 12.80694 950 ft 215 kts 117°
2026-04-18 12:47 56.68031 12.80853 757 ft 281 kts 228°
2026-04-18 12:47 56.66512 12.78949 924 ft 262 kts 117°
2026-04-18 12:48 56.67014 12.81282 485 ft 173 kts 32°
2026-04-18 12:48 56.68116 12.81826 106 ft 161 kts
2026-04-18 12:48 56.69421 12.81374 557 ft 248 kts 281°
2026-04-18 12:48 56.68303 12.79346 689 ft 255 kts 187°
2026-04-18 12:49 56.67076 12.80663 565 ft 224 kts 87°
2026-04-18 12:49 56.68666 12.81891 239 ft 416 kts
2026-04-18 12:49 56.69584 12.81546 3046 ft 218 kts 194°
2026-04-18 12:49 56.68141 12.82793 2019 ft 257 kts 144°
2026-04-18 12:50 56.67934 12.81793 234 ft 221 kts
2026-04-18 12:50 56.69222 12.82040 70 ft 158 kts
2026-04-18 12:50 56.69715 12.82159 70 ft 13 kts 23°
2026-04-18 12:50 56.69742 12.82163 73 ft 3 kts 249°
2026-04-18 12:51 56.69729 12.82147 67 ft 2 kts 183°
2026-04-18 12:51 56.69706 12.82143 73 ft 0 kts 186°
2026-04-18 12:52 56.69704 12.82143 73 ft 0 kts 186°
2026-04-18 12:52 56.68816 12.81936 159 ft 258 kts 202°
2026-04-18 12:52 56.67382 12.80276 939 ft 297 kts 109°
2026-04-18 12:53 56.69390 12.82051 314 ft 462 kts
2026-04-18 12:53 56.69368 12.81755 2988 ft 399 kts 181°
2026-04-18 12:53 56.66859 12.79408 1752 ft 423 kts 116°
2026-04-18 12:53 56.68936 12.81872 398 ft 493 kts 343°
2026-04-18 12:54 56.68101 12.78648 1260 ft 424 kts 179°
2026-04-18 12:54 56.66882 12.81111 763 ft 263 kts 38°
2026-04-18 12:54 56.68375 12.81877 114 ft 178 kts
2026-04-18 12:54 56.69145 12.81173 425 ft 197 kts 262°
2026-04-18 12:55 56.68561 12.78371 736 ft 276 kts 267°
2026-04-18 12:55 56.69995 12.77756 855 ft 302 kts 82°
2026-04-18 12:55 56.68889 12.81130 324 ft 387 kts 112°
2026-04-18 12:55 56.69464 12.80023 321 ft 0 kts
2026-04-18 12:56 56.70217 12.77638 477 ft 355 kts 185°
2026-04-18 12:56 56.68050 12.78378 730 ft 286 kts 158°
2026-04-18 12:56 56.67212 12.80794 650 ft 216 kts 80°
2026-04-18 12:56 56.68374 12.81877 92 ft 197 kts
2026-04-18 12:57 56.70010 12.82209 70 ft 0 kts 58°
2026-04-18 12:57 56.69978 12.82198 70 ft 19 kts 187°
2026-04-18 12:57 56.69956 12.82194 69 ft 0 kts 186°
2026-04-18 13:03 56.69868 12.82177 70 ft 89 kts 186°
2026-04-18 13:04 56.68514 12.81191 680 ft 347 kts 247°
2026-04-18 13:04 56.66709 12.79148 1166 ft 403 kts 118°
2026-04-18 13:04 56.68581 12.81929 280 ft 521 kts
2026-04-18 13:04 56.68522 12.81939 7524 ft 355 kts 179°
2026-04-18 13:05 56.70123 12.82261 270 ft 530 kts
2026-04-18 13:05 56.69965 12.79866 1000 ft 471 kts 174°
2026-04-18 13:05 56.67055 12.80347 1138 ft 374 kts 176°
2026-04-18 13:05 56.65118 12.81968 1622 ft 395 kts 59°
2026-04-18 13:06 56.67801 12.81814 527 ft 396 kts
2026-04-18 13:06 56.70427 12.82513 2174 ft 351 kts
2026-04-18 13:06 56.72338 12.83534 1789 ft 391 kts 134°
2026-04-18 13:06 56.69376 12.82084 124 ft 515 kts 186°
2026-04-18 13:07 56.66980 12.80898 5736 ft 297 kts 291°
2026-04-18 13:07 56.67058 12.79482 2300 ft 326 kts 119°
2026-04-18 13:07 56.68077 12.81820 138 ft 233 kts
2026-04-18 13:07 56.69199 12.81288 567 ft 217 kts 285°
2026-04-18 13:08 56.68219 12.79075 1251 ft 319 kts 186°
2026-04-18 13:08 56.67187 12.80942 807 ft 307 kts 42°
2026-04-18 13:08 56.70107 12.81661 233 ft 553 kts 345°
2026-04-18 13:08 56.69594 12.79212 638 ft 416 kts 126°
2026-04-18 13:09 56.69372 12.80414 5575 ft 407 kts 294°
2026-04-18 13:09 56.67651 12.79083 1744 ft 466 kts 207°
2026-04-18 13:09 56.68033 12.81829 270 ft 478 kts 12°
2026-04-18 13:09 56.71581 12.80955 931 ft 496 kts 16°
2026-04-18 13:10 56.72934 12.85382 1049 ft 396 kts 103°
2026-04-18 13:10 56.71505 12.88713 830 ft 332 kts 173°
2026-04-18 13:10 56.69737 12.85818 504 ft 482 kts 235°
2026-04-18 13:10 56.67313 12.79566 581 ft 600 kts 210°
2026-04-18 13:11 56.66997 12.81475 360 ft 283 kts 21°
2026-04-18 13:11 56.68504 12.81903 76 ft 169 kts
2026-04-18 13:11 56.68719 12.81979 69 ft 1 kts 68°
2026-04-18 13:11 56.68704 12.82115 72 ft 23 kts 95°
2026-04-18 13:12 56.68716 12.82400 68 ft 22 kts 76°
2026-04-18 13:12 56.68745 12.82651 71 ft 19 kts 113°
2026-04-18 13:12 56.68700 12.82642 71 ft 1 kts 252°